Location: Cerezo de Arriba
(41.2389°N, 3.5585°W)
Time: 04:30:32
(UTC+00:00)

CZ-4C R/B - Pass Details

Date: 19 May 2025
Orbit: 500 x 1483 km, 63.4° (Epoch: 23 June)

Event Time Altitude Azimuth Distance (km) Brightness Sun altitude
Rises 21:16:33 0° 321° (NW) 3,877 7.5 -16.7°
Reaches altitude 10° 21:19:02 10° 318° (NW) 3,046 6.4 -17.0°
Maximum altitude 21:26:24 59° 241° (WSW) 1,510 3.5 -17.9°
Enters shadow 21:32:31 21° 170° (S) 2,769 4.3 -18.6°
